User: anonymous   Login
Location: Melbourne
(37.8170°S, 144.9670°E)
Time: 19:45:20
(UTC+10:00)
Language:

Cosmos 962 Rocket - Orbit

View from above orbital plane
View from above orbital plane
View from above satellite
View from above satellite

Ground track
Ground track

The orbit data is extracted from the following two-line orbital elements,

1 10461U 77107B   16178.82781890 +.00000033 +00000-0 +18138-4 0  9991
2 10461 082.9499 277.2034 0034553 064.0617 050.5672 13.76760223941594
Epoch (UTC): 26 June 2016 19:52:03
Eccentricity: 0.0034553
inclination: 82.9499°
perigee height: 950 km
apogee height: 1001 km
right ascension of ascending node: 277.2034°
argument of perigee: 64.0617°
revolutions per day: 13.76760223
mean anomaly at epoch: 50.5672°
orbit number at epoch: 94159

The dashed part of the orbit path shows where the satellite is in the earth's shadow,  

DLR